DW5264 Weather Reports


Display with metric or nautical units.
time (UTC)temp
F
wind
direction
speed
MPH
gust
MPH
rain 1hr
in
rain 24hr
in
rain mn
in
humidity
%
barometer
mb
20260509100037 71 0.0 0.0 0.00 0.00 0.00 87 1009.1
20260509094533 71 0.0 0.0 0.00 0.00 0.00 87 1009.0
20260509093032 71 0.0 0.0 0.00 0.00 0.00 87 1009.0
20260509091533 71 0.0 0.0 0.00 0.00 0.00 87 1009.0
20260509090035 71 0.0 0.0 0.00 0.00 0.00 87 1007.9
20260509084536 71 0.0 0.0 0.00 0.00 0.00 86 1007.3
20260509083029 71 0.0 0.0 0.00 0.00 0.00 86 1007.4
20260509081537 72 0.0 0.0 0.00 0.00 0.00 85 1008.4
20260509080022 72 0.0 0.0 0.00 0.00 0.00 85 1009.3
20260509074520 72 0.0 0.0 0.00 0.00 0.00 85 1010.0
20260509073016 72 0.0 0.0 0.00 0.00 0.00 85 1010.5
20260509071514 72 0.0 0.0 0.00 0.00 0.00 84 1011.0
20260509070014 72 0.0 0.0 0.00 0.00 0.00 84 1011.7
20260509064513 72 0.0 0.0 0.00 0.00 0.00 84 1011.4
20260509063012 72 0.0 0.0 0.00 0.00 0.00 83 1011.3
20260509061511 72 0.0 0.0 0.00 0.00 0.00 83 1011.2
20260509060011 72 0.0 0.0 0.00 0.00 0.00 82 1011.4
20260509054520 72 0.0 0.0 0.00 0.00 0.00 81 1012.0
20260509053013 73 0.0 0.0 0.00 0.00 0.00 81 1012.1
20260509051504 73 0.0 0.0 0.00 0.00 0.00 81 1012.5
20260509050101 73 0.0 0.0 0.00 0.00 0.00 80 1011.1
20260509044601 73 0.0 0.0 0.00 0.00 0.00 80 1011.1
20260509043102 73 0.0 0.0 0.00 0.00 0.00 80 1011.1
20260509041600 73 0.0 0.0 0.00 0.00 0.00 79 1010.8
20260509041501 73 0.0 0.0 0.00 0.00 0.00 79 1010.8
20260509040114 73 0.0 0.0 0.00 0.00 0.00 79 1010.7
20260509034630 73 0.0 0.0 0.00 0.00 0.00 79 1011.7
20260509033057 73 0.0 0.0 0.00 0.00 0.00 79 1011.2
20260509031557 73 0.0 0.0 0.00 0.00 0.00 78 1010.8
20260509030109 73 0.0 0.0 0.00 0.00 0.00 78 1010.3
20260509024556 74 0.0 0.0 0.00 0.00 0.00 77 1010.1
20260509023056 74 0.0 0.0 0.00 0.00 0.00 76 1009.7
20260509021559 74 0.0 0.0 0.00 0.00 0.00 76 1009.7
20260509020054 74 0.0 0.0 0.00 0.00 0.00 75 1009.3
20260509014627 75 0.0 0.0 0.00 0.00 0.00 75 1009.5
20260509013108 75 0.0 0.0 0.00 0.00 0.00 75 1009.7
20260509011603 75 0.0 0.0 0.00 0.00 0.00 74 1009.6
20260509010051 75 0.0 0.0 0.00 0.00 0.00 74 1009.1
20260509004551 76 0.0 0.0 0.00 0.00 0.00 73 1009.1
20260509003112 76 0.0 0.0 0.00 0.00 0.00 72 1008.9
20260509001552 77 0.0 0.0 0.00 0.00 0.00 70 1008.9
20260509000105 77 0.0 0.0 0.00 0.00 0.00 70 1009.2
20260508234548 77 0.0 0.0 0.00 0.00 0.00 68 1009.4
20260508233047 78 0.0 0.0 0.00 0.00 0.00 67 1009.4
20260508231549 79 0.0 0.0 0.00 0.00 0.00 66 1009.5
20260508230046 79 0.0 0.0 0.00 0.00 0.00 66 1009.4
20260508224545 79 0.0 0.0 0.00 0.00 0.00 65 1009.4
20260508223043 79 0.0 0.0 0.00 0.00 0.00 65 1009.5
20260508221543 79 0.0 0.0 0.00 0.00 0.00 64 1009.6
20260508220042 79 0.0 0.0 0.00 0.00 0.00 64 1009.5
20260508214540 79 0.0 0.0 0.00 0.00 0.00 62 1009.7
20260508213039 79 0.0 0.0 0.00 0.00 0.00 64 1009.8
20260508211543 78 0.0 0.0 0.00 0.00 0.00 64 1009.9
20260508210037 76 0.0 0.0 0.00 0.00 0.00 67 1010.0
20260508204535 74 0.0 0.0 0.00 0.00 0.00 68 1010.5
20260508203034 74 0.0 0.0 0.00 0.00 0.00 67 1011.4
20260508201531 75 0.0 0.0 0.00 0.00 0.00 66 1012.0
20260508200035 76 0.0 0.0 0.00 0.00 0.00 65 1011.8
20260508194530 77 0.0 0.0 0.00 0.00 0.00 65 1011.8
20260508193028 77 0.0 0.0 0.00 0.00 0.00 64 1011.9
20260508191526 78 0.0 0.0 0.00 0.00 0.00 63 1012.0
20260508190036 79 0.0 0.0 0.00 0.00 0.00 62 1012.0
20260508184525 80 0.0 0.0 0.00 0.00 0.00 61 1012.2
20260508183022 80 0.0 0.0 0.00 0.00 0.00 61 1012.3
20260508181524 80 0.0 0.0 0.00 0.00 0.00 62 1012.3
20260508180018 80 0.0 0.0 0.00 0.00 0.00 61 1012.8
20260508174530 80 0.0 0.0 0.00 0.00 0.00 60 1013.0
20260508173015 80 0.0 0.0 0.00 0.00 0.00 60 1013.0
20260508171512 79 0.0 0.0 0.00 0.00 0.00 60 1013.3
20260508170009 77 0.0 0.0 0.00 0.00 0.00 62 1013.5
20260508164504 75 0.0 0.0 0.00 0.00 0.00 63 1014.0
20260508163120 74 0.0 0.0 0.00 0.00 0.00 64 1014.2
20260508161558 74 0.0 0.0 0.00 0.00 0.00 64 1014.8
20260508160053 73 0.0 0.0 0.00 0.00 0.00 66 1014.8
20260508154552 71 0.0 0.0 0.00 0.00 0.00 68 1015.1
20260508153045 70 0.0 0.0 0.00 0.00 0.00 68 1015.7
20260508151545 69 0.0 0.0 0.00 0.00 0.00 68 1015.3
20260508150041 69 0.0 0.0 0.00 0.00 0.00 68 1015.4
20260508144541 68 0.0 0.0 0.00 0.00 0.00 69 1015.5
20260508143038 68 0.0 0.0 0.00 0.00 0.00 69 1015.6
20260508141536 68 0.0 0.0 0.00 0.00 0.00 68 1015.6
20260508140035 68 0.0 0.0 0.00 0.00 0.00 69 1015.8
20260508134537 67 0.0 0.0 0.00 0.00 0.00 75 1015.6
20260508133027 66 0.0 0.0 0.00 0.00 0.00 77 1015.6
20260508131525 64 0.0 0.0 0.00 0.00 0.00 78 1015.8
20260508130024 64 0.0 0.0 0.00 0.00 0.00 78 1015.9
20260508124524 63 0.0 0.0 0.00 0.00 0.00 78 1016.0
20260508123019 63 0.0 0.0 0.00 0.00 0.00 78 1016.1
20260508121517 63 0.0 0.0 0.00 0.00 0.00 78 1016.1
20260508120017 64 0.0 0.0 0.00 0.00 0.00 79 1016.0
20260508114515 64 0.0 0.0 0.00 0.00 0.00 79 1016.2
20260508113014 64 0.0 0.0 0.00 0.00 0.00 79 1016.1
20260508111513 64 0.0 0.0 0.00 0.00 0.00 79 1015.6
20260508110013 64 0.0 0.0 0.00 0.00 0.00 79 1015.7
20260508104512 64 0.0 0.0 0.00 0.00 0.00 79 1016.4
20260508103013 64 0.0 0.0 0.00 0.00 0.00 78 1015.7
20260508101524 64 0.0 0.0 0.00 0.00 0.00 78 1014.8